Location: ???????
(55.4362°N, 38.1183°E)
Time: 17:37:41
(UTC+00:00)

Cosmos 2333 Rocket - Pass Details

Date: 26 October 2021
Orbit: 837 x 865 km, 70.8° (Epoch: 04 December)

Event Time Altitude Azimuth Distance (km) Brightness Sun altitude
Rises 18:00:30 0° 231° (SW) 3,399 5.6 -33.6°
Reaches altitude 10° 18:03:00 10° 236° (WSW) 2,471 4.9 -33.9°
Enters shadow 18:06:34 36° 259° (W) 1,320 3.4 -34.3°
